Weather in Salzburg

Austria     47°48′34″N   13°03′18″E
temp.,
°C
wind,
m/s
gust,
m/s
humid.,
%
clouds,
%
prec.,
mm/h
press.,
hPa
HPBL,
m
27 september, mon
mon2723:00+15w1197100 1.4 101831
02:00+13w2696100 15.8 1019356
05:00+13sw1198100 8.4 101955
08:00+13sse1196100 9.8 101933
11:00+17n117810 0.0 1019600
14:00+18nne226823 0.3 1018940
17:00+17n227863 0.4 1018297
20:00+13ssw2294100 1.0 102117
28 september, tue
tue2823:00+13s2292100 1.4 102238
02:00+12sw218962 1.7 102315
05:00+10s22915 0.0 102425
08:00+11s22915 0.0 102434
11:00+17n217313 0.0 1024630
14:00+18n2268100 0.1 1022898
17:00+17nne227751 0.0 1021462
20:00+13ssw1195100 0.0 102113
29 september, wed
wed2923:00+12s1194100 0.0 102113
02:00+11s2188100 0.0 101917
05:00+11wnw2192100 0.0 102021
08:00+12wsw3789100 0.8 1022445
11:00+12sse239098 1.4 102374
14:00+16nnw2365100 1.6 10221089
17:00+15nnw2376100 0.6 1023500
20:00+11se1190100 0.8 102510
30 september, thu
thu3023:00+10s219368 0.2 102615
02:00+9nnw1297100 0.5 102892
05:00+8n2398100 0.9 1030240
08:00+7ne0194100 1.2 103181
11:00+10sse117410 0.0 1030571
14:00+13n226475 0.0 10281103
17:00+13nne226821 0.0 1026772
20:00+7ssw119228 0.0 102710
1 october, fri
fri123:00+7s2288100 0.0 102814
02:00+7ssw1185100 0.0 102711
05:00+7s1183100 0.0 102714
08:00+8s1181100 0.0 102613
11:00+14nne116377 0.0 1025454
14:00+17n225884 0.0 1022724
17:00+15n1172100 0.0 1020209
20:00+10s2189100 0.0 102013